Lid_Strength_Index
12 10 10 10 10 11 12 12 13 12 11 10 8 7 7 6 6 5 6 5 5 4 4 4 3 3 3 2 2 3 3 3 4 3 2 2 2 2 2 2 2 2 2 2
12 10 9 11 10 9 9 10 10 11 10 8 6 6 7 6 6 6 6 5 5 5 4 4 3 3 3 3 3 3 3 3 3 2 2 1 1 1 2 2 2 2 2 2
14 11 10 12 10 10 9 9 9 12 10 7 8 8 8 7 7 7 6 5 5 5 4 4 3 3 3 3 3 4 4 3 3 2 2 2 1 2 2 2 3 2 2 3
13 13 15 11 8 7 9 9 8 8 8 7 7 7 7 7 7 7 6 6 6 5 4 3 3 3 3 4 4 4 4 3 2 2 2 2 2 2 2 2 2 2 3 2
14 15 13 10 9 9 9 10 8 9 7 7 7 6 7 6 6 6 6 5 4 4 3 3 3 3 4 4 4 5 4 3 2 2 2 2 2 2 2 2 3 3 3 2
14 14 16 12 8 6 7 13 7 7 7 7 7 10 8 6 5 4 4 4 4 4 3 4 4 4 4 5 5 5 4 3 2 2 2 2 2 2 2 2 3 2 3 3
15 16 13 9 8 7 13 12 7 6 7 7 8 7 6 6 6 5 4 3 4 4 4 4 4 3 5 5 5 4 3 2 2 2 2 2 2 2 3 3 4 4 2 2
14 15 16 7 8 12 9 7 6 6 6 6 6 6 5 5 6 6 6 5 3 4 4 3 4 3 5 5 5 4 4 4 3 2 1 1 2 3 3 3 4 4 2 2
14 14 9 7 7 7 6 7 6 6 5 5 6 6 4 5 4 5 4 4 3 4 4 4 3 4 7 7 5 5 5 4 3 4 3 2 2 3 4 4 4 4 3 4
11 9 9 7 6 6 6 6 5 5 5 5 6 5 5 5 5 5 4 4 4 4 6 6 6 6 6 5 5 5 5 5 2 3 3 1 3 3 3 4 5 4 4 5
11 9 8 7 6 5 5 5 5 5 5 5 5 5 5 5 5 5 5 5 5 5 6 7 7 7 6 5 5 5 3 3 3 2 2 5 6 7 6 9 6 5 5 5
13 9 9 8 6 5 7 6 6 6 6 5 4 5 5 5 5 5 5 5 6 6 6 7 6 6 5 4 4 4 5 4 2 2 3 6 8 8 10 10 11 11 9 8
8 6 6 5 5 6 7 7 6 7 7 7 6 5 4 5 4 5 5 5 5 5 5 4 4 4 3 3 3 3 3 3 3 3 5 7 7 7 8 8 9 10 10 9
6 7 9 8 9 6 5 5 5 5 6 6 6 6 6 4 4 4 4 4 4 4 4 4 3 3 2 1 3 2 3 5 5 5 4 5 6 6 7 7 8 7 8 8
7 7 7 7 6 6 6 5 6 6 5 5 4 4 4 5 4 4 4 5 3 3 4 3 4 4 3 3 3 3 3 3 3 3 3 3 4 4 5 6 6 6 6 7
6 6 6 6 7 6 6 6 7 7 7 6 6 5 4 5 4 4 5 4 4 4 3 4 5 4 4 2 2 2 3 3 4 4 5 5 5 5 5 6 5 6 6 6
6 7 7 7 6 6 6 6 6 7 6 6 5 4 3 4 4 5 6 5 5 5 6 6 6 4 2 3 2 2 2 3 2 4 4 5 5 5 5 5 5 6 6 7
5 6 7 7 7 7 6 5 5 5 5 4 4 5 4 4 5 6 5 5 5 6 6 5 5 4 2 2 3 3 4 4 3 4 4 4 5 5 4 4 5 6 7 7
5 5 5 4 4 5 5 5 4 4 5 4 4 5 4 5 5 4 6 6 5 5 4 3 2 3 4 3 3 3 3 3 4 4 4 4 4 4 3 4 4 5 5 6
4 4 4 4 4 4 4 4 4 4 3 4 4 4 5 5 5 5 5 6 5 5 4 3 3 4 4 3 3 5 5 5 5 5 5 6 6 5 5 4 3 4 5 5
5 4 4 4 4 4 3 3 4 4 4 3 5 5 5 4 3 3 4 5 4 3 3 3 3 5 5 5 5 5 5 4 5 5 4 5 5 5 5 5 5 4 4 6
4 4 4 4 4 4 3 4 3 4 5 4 4 4 4 4 3 3 3 4 5 5 4 5 4 4 4 3 6 6 7 5 5 4 4 4 5 5 6 6 6 7 7 7
4 4 4 4 4 4 3 4 4 3 4 4 4 4 4 4 4 4 5 4 4 4 4 5 4 3 3 5 6 7 6 6 7 6 6 5 5 6 7 7 6 7 8 8
4 4 4 4 4 4 5 4 4 3 4 3 3 4 4 4 4 4 4 4 5 5 5 5 5 4 5 7 7 7 7 8 9 8 8 7 7 7 7 7 7 7 8 8
4 4 4 5 5 4 4 4 4 3 3 4 4 4 4 4 4 5 4 4 5 5 6 4 4 4 7 7 7 7 7 9 9 9 9 9 8 8 8 7 7 8 8 8
5 5 5 5 5 4 4 4 5 4 4 4 4 4 4 5 4 4 4 4 4 5 6 6 7 7 7 7 7 7 7 9 9 9 9 9 9 9 8 8 7 7 8 8
5 6 6 5 5 4 3 5 5 5 5 4 4 4 3 3 3 4 4 4 5 5 5 6 7 6 7 7 7 7 7 8 8 8 9 9 10 10 10 8 8 8 9 8